[TLELIST] Archives

 

Current TLEs

June 9th 2006 PDT

HST 1 20580U 90037B 06160.17826303 .00000431 00000-0 20788-4 0 6294 2 20580 028.4665 102.0906 0003993 101.1487 258.9550 15.00048019683898 ISS (ZARYA) 1 25544U 98067A 06160.44840816 .00015891 00000-0 10358-3 0 825 2 25544 051.6325 227.3177 0009501 313.6941 164.0530 15.76046038431945 CXO 1 25867U 99040B 06159.83333333 .00000000 00000-0 00000+0 0 9359 2 25867 059.7040 096.7745 5787849 291.4203 000.4068 00.37797042 1213 ____________________________________________________________________ These 2-Line ...Continue Reading

Current TLEs

June 8th 2006 PDT

HST 1 20580U 90037B 06158.98065552 +.00000406 +00000-0 +18821-4 0 06322 2 20580 028.4664 109.8960 0004002 088.6048 271.5000 15.00047201683710 ISS (ZARYA) 1 25544U 98067A 06159.62722977 .00015872 00000-0 10361-3 0 788 2 25544 051.6325 231.5492 0009214 309.4096 186.0426 15.76016798431811 CXO 1 25867U 99040B 06159.83333333 .00000000 00000-0 00000+0 0 9359 2 25867 059.7040 096.7745 5787849 291.4203 000.4068 00.37797042 1213 ____________________________________________________________________ These 2-Line ...Continue Reading

Current TLEs

June 8th 2006 PDT

HST 1 20580U 90037B 06158.71452036 .00000403 00000-0 18542-4 0 6282 2 20580 028.4665 111.6303 0004024 085.8174 274.2873 15.00047049683679 ISS (ZARYA) 1 25544U 98067A 06159.51049769 .00015586 00000-0 10184-3 0 760 2 25544 051.6328 232.1511 0009250 308.8326 243.8707 15.76011813431796 CXO 1 25867U 99040B 06159.83333333 .00000000 00000-0 00000+0 0 9359 2 25867 059.7040 096.7745 5787849 291.4203 000.4068 00.37797042 1213 ____________________________________________________________________ These 2-Line ...Continue Reading

Current TLEs

June 7th 2006 PDT

HST 1 20580U 90037B 06158.44838532 .00000410 00000-0 19131-4 0 6262 2 20580 028.4665 113.3651 0004102 082.6737 277.4317 15.00047012683635 ISS (ZARYA) 1 25544U 98067A 06158.48320067 .00010493 00000-0 70104-4 0 691 2 25544 051.6322 237.4407 0009124 303.4552 176.8421 15.75966505431631 CXO 1 25867U 99040B 06159.83333333 .00000000 00000-0 00000+0 0 9359 2 25867 059.7040 096.7745 5787849 291.4203 000.4068 00.37797042 1213 ____________________________________________________________________ These 2-Line ...Continue Reading

Current TLEs

June 6th 2006 PDT

HST 1 20580U 90037B 06157.25077612 .00000417 00000-0 19684-4 0 6253 2 20580 028.4668 121.1788 0003823 073.0137 287.0850 15.00046583683454 ISS (ZARYA) 1 25544U 98067A 06157.32848765 .00012122 00000-0 80397-4 0 633 2 25544 051.6330 243.3884 0008973 298.0383 106.6572 15.75946674431450 CXO 1 25867U 99040B 06157.16666667 .00000000 00000-0 00000+0 0 9341 2 25867 059.6693 096.8320 5790303 291.4676 357.3165 00.37801278 1218 ____________________________________________________________________ These 2-Line ...Continue Reading

Current TLEs

June 5th 2006 PDT

HST 1 20580U 90037B 06154.98862314 +.00000447 +00000-0 +22021-4 0 06264 2 20580 028.4671 135.9274 0003274 051.0509 309.0372 15.00045503683118 ISS (ZARYA) 1 25544U 98067A 06155.48622685 .00016023 00000-0 10504-3 0 501 2 25544 051.6331 252.8781 0008855 291.1850 094.7278 15.75912198431166 CXO 1 25867U 99040B 06157.16666667 .00000000 00000-0 00000+0 0 9341 2 25867 059.6693 096.8320 5790303 291.4676 357.3165 00.37801278 1218 ____________________________________________________________________ These 2-Line ...Continue Reading

Current TLEs

June 4th 2006 PDT

HST 1 20580U 90037B 06153.32527391 +.00000374 +00000-0 +16329-4 0 06234 2 20580 028.4663 146.7687 0003151 031.7405 328.3366 15.00044201682863 ISS (ZARYA) 1 25544U 98067A 06153.79389594 .00015816 00000-0 10401-3 0 417 2 25544 051.6335 261.5934 0008807 282.8125 215.7065 15.75854998430897 CXO 1 25867U 99040B 06154.54166667 .00000000 00000-0 00000+0 0 9334 2 25867 059.6542 096.9018 5788860 291.5045 359.9254 00.37796555 1210 ____________________________________________________________________ These 2-Line ...Continue Reading

Current TLEs

June 3rd 2006 PDT

HST 1 20580U 90037B 06153.12567213 .00000365 00000-0 15617-4 0 6227 2 20580 028.4662 148.0682 0003236 028.0985 331.9790 15.00044088682839 ISS (ZARYA) 1 25544U 98067A 06153.66842227 .00015715 00000-0 10339-3 0 429 2 25544 051.6339 262.2391 0008771 281.6963 224.5204 15.75850449430871 CXO 1 25867U 99040B 06154.54166667 .00000000 00000-0 00000+0 0 9334 2 25867 059.6542 096.9018 5788860 291.5045 359.9254 00.37796555 1210 ____________________________________________________________________ These 2-Line ...Continue Reading

Current TLEs

June 2nd 2006 PDT

HST 1 20580U 90037B 06153.12567213 .00000365 00000-0 15617-4 0 6227 2 20580 028.4662 148.0682 0003236 028.0985 331.9790 15.00044088682839 ISS (ZARYA) 1 25544U 98067A 06153.33231459 .00015464 00000-0 10186-3 0 399 2 25544 051.6343 263.9701 0008814 280.1589 118.0125 15.75838349430824 CXO 1 25867U 99040B 06154.54166667 .00000000 00000-0 00000+0 0 9334 2 25867 059.6542 096.9018 5788860 291.5045 359.9254 00.37796555 1210 ____________________________________________________________________ These 2-Line ...Continue Reading

Current TLEs

June 1st 2006 PDT

HST 1 20580U 90037B 06151.39578716 +.00000378 +00000-0 +16616-4 0 06228 2 20580 028.4662 159.3454 0003181 008.0585 352.0040 15.00043380682571 ISS (ZARYA) 1 25544U 98067A 06152.44555657 .00015170 00000-0 10014-3 0 348 2 25544 051.6348 268.5359 0008679 276.7048 127.5142 15.75808502430685 CXO 1 25867U 99040B 06151.87500000 .00000000 00000-0 00000+0 0 9329 2 25867 059.6512 096.9387 5785175 291.5877 356.8569 00.37787081 1214 ____________________________________________________________________ These 2-Line ...Continue Reading
  • This mailing list is a public mailing list - anyone may join or leave, at any time.
  • This mailing list is announce-only.

International Space Station (ISS) / Hubble Space Telescope (HST) / Chandra X-Ray Observatory Orbital Data via EMAIL

Privacy Policy:

Private list